Home   Weather   Jujuy   Past weeks

Flag for Argentina Past Weather in Jujuy, Jujuy, Argentina — Yesterday and Last 2 Weeks

Now
66 °F

Clear.


Feels Like: 66 °F
Forecast: 53 / 84 °F
Wind: 5 mph from North

Location: Jujuy Aerodrome

Current Time: Sep 28, 2016 at 3:57:58 AM

Latest Report: Sep 28, 2016 at 3:00 AM


Visibility: 10 mi

Pressure: 29.92 "Hg (21.33 "Hg at 2895m altitude)

Humidity: 68%

Dew Point: 55 °F

Location of JujuyLocation

Past Weather in Jujuy — Graph

°F

Jujuy Temperature Yesterday

Maximum temperature yesterday: 86 °F (at 3:00 PM)
Minimum temperature yesterday: 57 °F (at 2:00 AM)
Average temperature yesterday: 72 °F

High & Low Weather Summary for the Past Weeks

 TemperatureHumidityPressure
High93 °F (Sep 17, 4:00 PM)94% (Sep 23, 8:00 AM)30.39 "Hg (Sep 23, 8:00 AM)
Low46 °F (Sep 15, 4:00 AM)15% (Sep 17, 4:00 PM)29.74 "Hg (Sep 17, 4:00 PM)
Average66 °F52%30.10 "Hg
* Reported Sep 13 3:00 AM — Sep 28 2:00 AM, Jujuy, Weather by CustomWeather, © 2016

Note: Actual official high and low records may vary slightly from our data, if they occured in-between our weather recording intervals... More about our weather records

Advertising

Jujuy Weather History for the Previous 24 Hours

Scroll right to see more
 ConditionsComfort  
Time TempWeatherWind HumidityBarometerVisibility
2:00 AM
Wed, Sep 28
70 °FClear.6 mph60%29.95 "Hg10 mi
1:00 AM72 °FClear.6 mph57%29.95 "Hg10 mi
12:00 AM73 °FClear.7 mph53%29.95 "Hg10 mi
11:00 PM
Tue, Sep 27
75 °FClear.5 mph50%29.95 "Hg10 mi
10:00 PM77 °FClear.6 mph47%29.95 "Hg10 mi
9:00 PM79 °FClear.6 mph42%29.95 "Hg10 mi
8:00 PM79 °FClear.No wind42%29.92 "Hg10 mi
7:00 PM81 °FSunny.7 mph39%29.89 "Hg10 mi
6:00 PM84 °FPassing clouds.13 mph35%29.89 "HgN/A
5:00 PM84 °FPassing clouds.13 mph35%29.89 "HgN/A
4:00 PM86 °FPassing clouds.10 mph31%29.89 "HgN/A
3:00 PM86 °FPassing clouds.13 mph31%29.92 "HgN/A
2:00 PM84 °FPassing clouds.13 mph31%29.98 "HgN/A
1:00 PM82 °FSunny.10 mph32%30.01 "Hg10 mi
12:00 PM81 °FSunny.6 mph34%30.04 "Hg10 mi
11:00 AM79 °FSunny.8 mph37%30.07 "Hg10 mi
10:00 AM73 °FSunny.No wind47%30.07 "Hg10 mi
9:00 AM68 °FSunny.No wind60%30.07 "Hg10 mi
8:00 AM61 °FSunny.7 mph72%30.07 "Hg10 mi
7:00 AM57 °FClear.10 mph77%30.04 "Hg10 mi
6:00 AM57 °FClear.6 mph77%30.01 "Hg10 mi
5:00 AM57 °FClear.7 mph82%30.01 "Hg10 mi
4:00 AM57 °FClear.5 mph82%29.98 "Hg10 mi
3:00 AM57 °FClear.3 mph82%30.01 "Hg10 mi
Weather by CustomWeather, © 2016

See weather overviewHow to use our weather pages